Date String (YYYY-MM-DD hh:mm:ss) UTC,Instrument flags,Ambient pressure (hPa),Sample flow (lpm),Bypass flow (lpm),Sample temperature (°C),Ambient temperature (°C),ASC tube jacket temperature (°C),LED temperature (°C),Box temperature (°C),Sample RH (%),Span deviation,Mass concentration (μg/m³),Mass concentration (μg/m³),Mass concentration (μg/m³)
DateTimeUTC,F1_M11,P_M11,Q1_M11,Q2_M11,T1_M11,T2_M11,T3_M11,T4_M11,T5_M11,U1_M11,ZSPAN_M11,X2_M11,X0_M11,X1_M11
2023-05-30 09:00:00,,0829.9,5.00,0.00,29.9,28.2,00.0,38.3,31.5,20.1,0000.0,0004.55,0009.53,0003.59
2023-05-30 09:01:00,,0829.8,5.01,0.00,29.9,28.2,00.0,38.3,31.4,20.1,0000.0,0004.52,0009.34,0003.59
2023-05-30 09:02:00,,0829.8,5.01,0.00,29.9,28.2,00.0,38.3,31.4,20.1,0000.0,0004.46,0009.21,0003.59
2023-05-30 09:03:00,,0829.8,5.00,0.00,29.9,28.2,00.0,38.3,31.4,20.1,0000.0,0004.45,0008.97,0003.59
2023-05-30 09:04:00,,0829.8,5.00,0.00,29.9,28.2,00.0,38.3,31.4,20.2,0000.0,0004.45,0008.73,0003.58
2023-05-30 09:05:00,,0829.8,4.99,0.00,29.9,28.2,00.0,38.3,31.4,20.2,0000.0,0004.41,0008.60,0003.56
2023-05-30 09:06:00,,0829.8,5.00,0.00,29.9,28.2,00.0,38.3,31.4,20.2,0000.0,0004.36,0008.36,0003.56
2023-05-30 09:07:00,,0829.8,5.00,0.00,29.9,28.2,00.0,38.3,31.4,20.3,0000.0,0004.37,0008.42,0003.56
2023-05-30 09:08:00,,0829.8,5.01,0.00,29.9,28.2,00.0,38.3,31.4,20.3,0000.0,0004.38,0008.98,0003.55
2023-05-30 09:09:00,,0829.8,5.01,0.00,29.9,28.2,00.0,38.3,31.4,20.3,0000.0,0004.37,0008.80,0003.56
2023-05-30 09:10:00,,0829.8,5.01,0.00,29.9,28.2,00.0,38.3,31.4,20.3,0000.0,0004.34,0008.52,0003.56
2023-05-30 09:11:00,,0829.7,5.01,0.00,29.9,28.1,00.0,38.3,31.4,20.3,0000.0,0004.30,0008.43,0003.56
2023-05-30 09:12:00,,0829.7,5.00,0.00,29.9,28.1,00.0,38.3,31.4,20.3,0000.0,0004.29,0008.37,0003.56
2023-05-30 09:13:00,,0829.8,5.00,0.00,29.9,28.1,00.0,38.3,31.4,20.3,0000.0,0004.27,0008.28,0003.57
2023-05-30 09:14:00,,0829.7,5.01,0.00,29.9,28.1,00.0,38.3,31.4,20.4,0000.0,0004.26,0008.26,0003.57
2023-05-30 09:15:00,,0829.7,4.99,0.00,29.9,28.1,00.0,38.3,31.4,20.4,0000.0,0004.27,0008.26,0003.58
2023-05-30 09:16:00,,0829.7,5.00,0.00,29.9,28.1,00.0,38.3,31.4,20.4,0000.0,0004.32,0008.37,0003.60
2023-05-30 09:17:00,,0829.7,5.00,0.00,29.9,28.1,00.0,38.3,31.4,20.4,0000.0,0004.35,0008.47,0003.60
2023-05-30 09:18:00,,0829.7,5.00,0.00,29.9,28.1,00.0,38.3,31.4,20.4,0000.0,0004.41,0008.68,0003.60
2023-05-30 09:19:00,,0829.7,5.00,0.00,29.8,28.1,00.0,38.3,31.4,20.4,0000.0,0004.42,0008.15,0003.60
2023-05-30 09:20:00,,0829.7,5.00,0.00,29.8,28.1,00.0,38.3,31.4,20.4,0000.0,0004.43,0008.12,0003.61
2023-05-30 09:21:00,,0829.7,5.00,0.00,29.8,28.1,00.0,38.3,31.4,20.4,0000.0,0004.44,0008.25,0003.62
2023-05-30 09:22:00,,0829.7,4.99,0.00,29.8,28.1,00.0,38.3,31.4,20.3,0000.0,0004.46,0008.62,0003.63
2023-05-30 09:23:00,,0829.7,5.00,0.00,29.8,28.1,00.0,38.2,31.4,20.3,0000.0,0004.43,0008.60,0003.62
2023-05-30 09:24:00,,0829.7,5.01,0.00,29.8,28.1,00.0,38.2,31.4,20.3,0000.0,0004.47,0008.76,0003.61
2023-05-30 09:25:00,,0829.7,5.01,0.00,29.8,28.1,00.0,38.2,31.4,20.3,0000.0,0004.49,0008.98,0003.61
2023-05-30 09:26:00,,0829.7,5.00,0.00,29.8,28.1,00.0,38.2,31.3,20.3,0000.0,0004.45,0008.99,0003.61
2023-05-30 09:27:00,,0829.7,5.00,0.00,29.8,28.0,00.0,38.2,31.3,20.3,0000.0,0004.37,0008.80,0003.59
2023-05-30 09:28:00,,0829.7,4.99,0.00,29.8,28.0,00.0,38.2,31.3,20.3,0000.0,0004.36,0008.75,0003.59
2023-05-30 09:29:00,,0829.7,5.00,0.00,29.8,28.0,00.0,38.2,31.3,20.3,0000.0,0004.31,0008.64,0003.59
2023-05-30 09:30:00,,0829.7,5.00,0.00,29.8,28.0,00.0,38.2,31.3,20.3,0000.0,0004.31,0009.41,0003.59
2023-05-30 09:31:00,,0829.7,5.02,0.00,29.8,28.1,00.0,38.2,31.3,20.2,0000.0,0004.31,0009.92,0003.58
2023-05-30 09:32:00,,0829.7,5.00,0.00,29.8,28.1,00.0,38.2,31.3,20.2,0000.0,0004.33,0009.92,0003.57
2023-05-30 09:33:00,,0829.7,4.99,0.00,29.8,28.1,00.0,38.2,31.3,20.2,0000.0,0004.31,0009.56,0003.56
2023-05-30 09:34:00,,0829.7,4.99,0.00,29.8,28.1,00.0,38.2,31.3,20.1,0000.0,0004.34,0009.59,0003.56
2023-05-30 09:35:00,,0829.7,5.00,0.00,29.8,28.1,00.0,38.2,31.3,20.0,0000.0,0004.32,0009.47,0003.56
2023-05-30 09:36:00,,0829.7,4.99,0.00,29.8,28.0,00.0,38.2,31.3,20.0,0000.0,0004.31,0009.30,0003.56
2023-05-30 09:37:00,,0829.7,5.00,0.00,29.8,28.0,00.0,38.2,31.3,20.0,0000.0,0004.35,0009.28,0003.55
2023-05-30 09:38:00,,0829.7,5.01,0.00,29.8,28.0,00.0,38.2,31.3,20.0,0000.0,0004.39,0009.37,0003.56
2023-05-30 09:39:00,,0829.7,5.01,0.00,29.7,28.0,00.0,38.2,31.3,20.1,0000.0,0004.39,0009.87,0003.54
2023-05-30 09:40:00,,0829.6,5.01,0.00,29.7,28.0,00.0,38.2,31.3,20.1,0000.0,0004.39,0009.84,0003.54
2023-05-30 09:41:00,,0829.7,5.01,0.00,29.7,28.0,00.0,38.2,31.3,20.0,0000.0,0004.38,0009.21,0003.54
2023-05-30 09:42:00,,0829.7,5.00,0.00,29.7,28.0,00.0,38.1,31.3,20.0,0000.0,0004.40,0008.78,0003.53
2023-05-30 09:43:00,,0829.7,4.99,0.00,29.7,28.0,00.0,38.1,31.3,19.9,0000.0,0004.34,0008.46,0003.52
2023-05-30 09:44:00,,0829.7,5.00,0.00,29.7,28.0,00.0,38.1,31.3,19.9,0000.0,0004.35,0008.47,0003.51
2023-05-30 09:45:00,,0829.7,5.00,0.00,29.7,28.0,00.0,38.1,31.3,19.9,0000.0,0004.31,0008.66,0003.51
2023-05-30 09:46:00,,0829.7,5.01,0.00,29.7,28.0,00.0,38.1,31.3,20.0,0000.0,0004.31,0009.17,0003.50
2023-05-30 09:47:00,,0829.7,4.99,0.00,29.7,28.0,00.0,38.1,31.3,20.0,0000.0,0004.27,0009.08,0003.50
2023-05-30 09:48:00,,0829.7,5.00,0.00,29.7,27.9,00.0,38.1,31.3,19.9,0000.0,0004.25,0009.09,0003.49
2023-05-30 09:49:00,,0829.7,5.01,0.00,29.7,27.9,00.0,38.1,31.2,19.9,0000.0,0004.25,0009.18,0003.48
2023-05-30 09:50:00,,0829.7,5.00,0.00,29.7,27.9,00.0,38.1,31.2,19.9,0000.0,0004.24,0008.86,0003.48
2023-05-30 09:51:00,,0829.7,5.00,0.00,29.7,27.9,00.0,38.1,31.2,19.9,0000.0,0004.22,0009.18,0003.48
2023-05-30 09:52:00,,0829.7,5.01,0.00,29.7,27.9,00.0,38.1,31.2,20.0,0000.0,0004.22,0009.22,0003.47
2023-05-30 09:53:00,,0829.7,5.01,0.00,29.7,27.9,00.0,38.1,31.2,19.9,0000.0,0004.19,0009.00,0003.47
2023-05-30 09:54:00,,0829.7,5.01,0.00,29.7,27.9,00.0,38.1,31.2,19.8,0000.0,0004.18,0009.02,0003.46
2023-05-30 09:55:00,,0829.7,4.99,0.00,29.7,27.9,00.0,38.1,31.2,19.8,0000.0,0004.19,0009.15,0003.46
2023-05-30 09:56:00,,0829.6,4.99,0.00,29.7,27.9,00.0,38.1,31.2,19.8,0000.0,0004.24,0009.22,0003.46
2023-05-30 09:57:00,,0829.7,5.00,0.00,29.6,27.9,00.0,38.1,31.2,19.8,0000.0,0004.26,0008.81,0003.46
2023-05-30 09:58:00,,0829.7,5.00,0.00,29.6,27.9,00.0,38.1,31.2,19.8,0000.0,0004.28,0008.87,0003.45
2023-05-30 09:59:00,,0829.7,5.00,0.00,29.6,27.9,00.0,38.1,31.2,19.8,0000.0,0004.26,0009.26,0003.44
